Regional Weather Roundup
Issued by NWS Cleveland, OH

Home | Current Version | Previous Version | Text Only | Print | Product List | Glossary On
Versions: 1 2 3 4 5 6 7 8 9 10 11 12 13 14 15 16 17 18 19 20 21 22 23 24 25 26 27 28 29 30 31 32 33 34 35 36 37 38 39 40 41 42 43 44 45 46 47 48 49 50
000
ASUS41 KCLE 311810
RWRCLE
OHIO REGIONAL WEATHER ROUNDUP
NATIONAL WEATHER SERVICE CLEVELAND, OH
200 PM EDT FRI JUL 31 2015

NOTE: "FAIR" INDICATES FEW OR NO CLOUDS BELOW 12,000 FEET WITH NO
SIGNIFICANT WEATHER AND/OR OBSTRUCTIONS TO VISIBILITY.

OHZ001>008-015>018-024>027-034-035-043-044-311900-
   NORTHWEST OHIO

CITY           SKY/WX    TMP DP  RH WIND       PRES   REMARKS
DEFIANCE       MOSUNNY   87  56  34 W9G17     29.95F
FINDLAY        MOSUNNY   86  58  38 W14       29.96F
TOLEDO EXPRESS MOSUNNY   85  59  41 W17       29.93F
TOLEDO EXEC    MOSUNNY   86  58  38 W17G24    29.93F
LIMA           MOSUNNY   84  58  40 W14G23    29.99F
$$

OHZ009>014-019>023-028>033-038-089-311900-
   NORTHEAST OHIO

CITY           SKY/WX    TMP DP  RH WIND       PRES   REMARKS
CLE-HOPKINS    MOSUNNY   86  57  37 W15G23    29.95F
CLE-LAKEFRONT  SUNNY     82  64  54 W15       29.92F
CUY CO. ARPT   MOSUNNY   84  61  45 W13G23    29.95F
LORAIN-ELYRIA  SUNNY     83  56  39 NW10G21   29.95F
ASHTABULA      MOSUNNY   84  57  39 W12       29.93F
AKRON-CANTON   MOSUNNY   85  56  37 W15       29.96F
WOOSTER        MOSUNNY   83  59  44 W15G21    29.97F
MANSFIELD      MOSUNNY   83  59  44 W12G17    29.99F
YOUNGSTOWN     PTSUNNY   84  55  36 W9        29.94F
$$

OHZ042-051>053-060>062-070>072-077>081-311900-
  SOUTHWEST OHIO

CITY           SKY/WX    TMP DP  RH WIND       PRES   REMARKS
CINC-COVINGTON MOSUNNY   85  59  41 W6        30.04
CINC-LUNKEN    SUNNY     86  60  41 W13       30.02F
HAMILTON       SUNNY     86  59  39 NW9G18    30.03F
DAYTON         MOSUNNY   83  63  50 W10       30.03F
WRIGHT-PAT AFB MOSUNNY   84  59  43 NW7       30.01F
DAYTON GENERAL SUNNY     84  58  40 NW10      30.02F
WILMINGTON     SUNNY     84  59  42 NW9G18    30.02F
$$

OHZ036-037-039>041-045>050-054>059-063>069-073>076-082>088-311900-
  CENTRAL AND SOUTHEAST OHIO

CITY           SKY/WX    TMP DP  RH WIND       PRES   REMARKS
COLUMBUS       MOSUNNY   87  58  37 W15G21    29.98F
OSU AIRPORT    MOSUNNY   83  62  49 W12       29.99F
BOLTON FIELD   MOSUNNY   82  63  51 NW12G18   30.01F
RICKENBACK AFB MOSUNNY   84  61  46 W13       29.98F
NEWARK         PTSUNNY   88  59  37 W13       29.97F
MARION         MOSUNNY   84  56  38 NW10G22   29.99F
LANCASTER      MOSUNNY   83  62  49 W7        29.99F
ZANESVILLE     MOSUNNY   85  58  39 W12       29.98F
NEW PHILLY     MOSUNNY   82  61  48 W9G20     29.97F
$$


USA.gov is the U.S. government's official web portal to all federal, state and local government web resources and services.